NOAA NWS Hourly Roundups by Site

Regional Weather Roundup for Omaha, NE

To Select Another Site Choose from List

Select Site:  

000
ASUS43 KOAX 170210
RWRNE

WEATHER ROUNDUP FOR NEBRASKA
NATIONAL WEATHER SERVICE OMAHA NE
900 PM CDT TUE OCT 16 2018

NOTES: SATELLITE DATA IS BEING USED TO AUGMENT CLOUD COVER ABOVE
       12000 FEET.
       "FAIR" INDICATES FEW OR NO CLOUDS BELOW 12,000 FEET WITH NO
       SIGNIFICANT WEATHER AND/OR OBSTRUCTIONS TO VISIBILITY.


NEZ001>004-019>022-054>056-170300-
NEBRASKA PANHANDLE

CITY           SKY/WX    TMP DP  RH WIND       PRES   REMARKS
SCOTTSBLUFF    CLEAR     44  36  73 N7        30.36R
ALLIANCE       CLEAR     45  34  65 NW9       30.35R
CHADRON        PTCLDY    46  35  65 CALM      30.34R
GORDON         FAIR      43  34  69 NW6       30.32R
KIMBALL        CLEAR     38  32  77 W8        30.39R WCI  33
SIDNEY         CLEAR     36  30  79 W7        30.38R WCI  30
$$

NEZ057>060-069>072-079>082-170300-
SOUTHWEST NEBRASKA

CITY           SKY/WX    TMP DP  RH WIND       PRES   REMARKS
NORTH PLATTE   CLEAR     39  34  82 NW3       30.30R
IMPERIAL       CLEAR     49  32  52 NW7       30.34R
LEXINGTON      CLEAR     48  36  63 N6        30.30R
MCCOOK         CLEAR     47  35  63 N10       30.31R
OGALLALA       CLEAR     45  35  67 CALM      30.34R
$$

NEZ005>010-023>029-035>040-094-170300-
NORTH CENTRAL NEBRASKA

CITY           SKY/WX    TMP DP  RH WIND       PRES   REMARKS
VALENTINE      CLEAR     45  35  68 W7        30.28R
AINSWORTH      PTCLDY    45  36  68 W3        30.28R
BROKEN BOW     CLEAR     44  35  70 NW5       30.28R
O`NEILL        CLEAR     46  37  71 NW5       30.26R
ORD            CLEAR     45  37  73 CALM      30.26R
THEDFORD       CLEAR     46  36  68 W5        30.31R
$$

NEZ041-046>049-061>064-073>077-083>087-170300-
SOUTH CENTRAL NEBRASKA

CITY           SKY/WX    TMP DP  RH WIND       PRES   REMARKS
GRAND ISLAND   CLEAR     48  37  65 NW5       30.26R
AURORA         CLEAR     46  37  70 NW3       30.25R
HASTINGS       CLEAR     52  37  56 CALM      30.27R
HEBRON         CLEAR     49  40  71 CALM      30.25R
HOLDREGE       CLEAR     49  37  64 NW3       30.29R
KEARNEY        CLEAR     48  36  63 NW7       30.29R
YORK           CLEAR     46  37  71 NW6       30.25R
$$

NEZ011>018-030>034-042>045-170300-
NORTHEAST NEBRASKA

CITY           SKY/WX    TMP DP  RH WIND       PRES   REMARKS
NORFOLK        CLEAR     43  38  82 W6        30.21R
ALBION         CLEAR     42  38  83 CALM      30.25R
BLAIR          CLEAR     55  39  55 NW9       30.21R
COLUMBUS       CLEAR     44  38  79 CALM      30.25R
FREMONT        CLEAR     50  37  61 W3        30.23R
TEKAMAH        MOCLDY    49  39  68 W6        30.21R
WAYNE          PTCLDY    43  35  73 CALM      30.21R
$$

NEZ050>053-065>068-078-088>093-170300-
SOUTHEAST NEBRASKA

CITY           SKY/WX    TMP DP  RH WIND       PRES   REMARKS
LINCOLN        CLEAR     51  38  60 NW3       30.24R
OMAHA EPPLEY   CLEAR     52  40  63 N5        30.21R
BEATRICE       CLEAR     51  40  65 CALM      30.23R
FALLS CITY     CLEAR     56  41  57 SW12      30.20R
NEBRASKA CITY  CLEAR     54  34  47 N7        30.21R
PLATTSMOUTH    CLEAR     54  40  60 NW5       30.21R
$$

NEZ044-045-051>053-067-170300-
OMAHA AREA

CITY           SKY/WX    TMP DP  RH WIND       PRES   REMARKS
OMAHA EPPLEY   CLEAR     52  40  63 N5        30.21R
BLAIR          CLEAR     55  39  55 NW9       30.21R
FREMONT        CLEAR     50  37  61 W3        30.23R
MILLARD        CLEAR     52  43  71 W3        30.22R
PLATTSMOUTH    CLEAR     54  40  60 NW5       30.21R
WAHOO          FAIR      49  37  64 NW6       30.22R
$$


 

View Past Reports for Omaha, NE.

Products Courtesy of NOAA-NWS
NWS Information Parsing Script by Ken True at Saratoga Weather - Script by SE Lincoln Weather.